Regional Weather Roundup
Issued by NWS Upton, NY

Current Version | Previous Version | Graphics & Text | Print | Product List | Glossary Off
Versions: 1 2 3 4 5 6 7 8 9 10 11 12 13 14 15 16 17 18 19 20 21 22 23 24 25 26 27 28 29 30 31 32 33 34 35 36 37 38 39 40 41 42 43 44 45 46 47 48 49 50

000
ASUS41 KOKX 050808
RWROKX

REGIONAL WEATHER ROUNDUP
NATIONAL WEATHER SERVICE NEW YORK NY
400 AM EDT SUN JUL 05 2015

NOTE: "FAIR" INDICATES FEW OR NO CLOUDS BELOW 12,000 FEET WITH NO
SIGNIFICANT WEATHER AND/OR OBSTRUCTIONS TO VISIBILITY.

NYZ071-072-176-178-NJZ106-104-050900-
NEW YORK CITY METRO AREA


CITY           SKY/WX    TMP DP  RH WIND       PRES   REMARKS
CENTRAL PARK   CLOUDY    70  58  65 CALM      30.07S
LAGUARDIA APRT MOCLDY    70  62  76 CALM      30.04R
KENNEDY INTL   MOCLDY    68  62  81 SW5       30.05R
NEWARK/LIBERTY CLOUDY    70  59  68 W5        30.05R
BRNX BOT. GARD   N/A     64  61  88 NE2       30.04S
TETERBORO      CLOUDY    67  60  78 CALM      30.04R
$$

NYZ177-179-078>081-050900-
LONG ISLAND NEW YORK

CITY           SKY/WX    TMP DP  RH WIND       PRES   REMARKS
FARMINGDALE    PTCLDY    65  56  72 CALM      30.05R
ISLIP          PTCLDY    62  54  74 CALM      30.03R HAZE
SHIRLEY        MOCLDY    63  56  78 CALM      30.04S HAZE
WESTHAMPTON    CLOUDY    60  57  89 CALM      30.05S
MONTAUK POINT    N/A     66  60  81 W3        30.04S
$$

NYZ052-065-067-050900-
HUDSON VALLEY

CITY           SKY/WX    TMP DP  RH WIND       PRES   REMARKS
WHITE PLAINS   CLEAR     61  59  93 CALM      30.04S
NEWBURGH       NOT AVBL
MONTGOMERY     MOCLDY    56  56 100 CALM      30.05S FOG
POUGHKEEPSIE   CLEAR     57  55  93 CALM      30.04S FOG
ALBANY         PTCLDY    59  57  93 CALM      30.04R FOG
$$

NJZ001-105-106-008-010-013-015-019>022-104-050900-
NEW JERSEY

CITY           SKY/WX    TMP DP  RH WIND       PRES   REMARKS
NEWARK/LIBERTY CLOUDY    70  59  68 W5        30.05R
TETERBORO      CLOUDY    67  60  78 CALM      30.04R
CALDWELL       CLOUDY    63  59  87 CALM      30.06R
MORRISTOWN     MOCLDY    63  59  88 CALM      30.06R FOG
SOMERVILLE     PTCLDY    62  59  90 CALM      30.04R FOG
SUSSEX         MOCLDY    58  56  93 CALM      30.06S FOG
ANDOVER          N/A     61  60  97 CALM      30.07S
TRENTON        CLOUDY    67  58  72 NW3       30.05R
MILLVILLE      CLOUDY    68  61  78 NW3       30.06R
ATLANTIC CITY  CLOUDY    67  63  87 CALM      30.05R
WRIGHTSTOWN    CLOUDY    68  58  71 NW2       30.03S
TOMS RIVER     CLOUDY    66  61  82 CALM      30.05S
BELMAR         CLOUDY    68  57  68 CALM      30.05S
$$

PAZ047>061-062-071-050900-
EASTERN PENNSYLVANIA

CITY           SKY/WX    TMP DP  RH WIND       PRES   REMARKS
PHILADELPHIA   MOCLDY    71  57  61 NW3       30.06S
ALLENTOWN      PTCLDY    64  62  93 CALM      30.07R FOG
SCRANTON       FOG       63  61  93 CALM      30.08F VSB 1/4
$$

CTZ002-004>006-009-010-012-RIZ004-006-007-MAZ004-011-015-050900-
SOUTHERN NEW ENGLAND
 IN CT

CITY           SKY/WX    TMP DP  RH WIND       PRES   REMARKS
BRADLEY INTL   CLEAR     57  56  96 S5        30.02S FOG
HARTFORD       CLEAR     59  57  93 SE7       30.03S FOG
DANBURY        CLEAR     55  52  89 SW3       30.06S FOG
WTRBRY/OXFORD  CLEAR     59  52  77 CALM      30.06S
BRIDGEPORT     CLEAR     64  60  87 NW3       30.04R FOG
MERIDEN        FOG       56  53  90 CALM      30.04S VSB 1
NEW HAVEN      CLEAR     58  56  93 CALM      30.04S FOG
CHESTER        FAIR      61  55  82 W3        30.05R
GROTON         PTCLDY    60  57  89 NE3       30.02S
WILLIMANTIC    FOG       57  55  93 CALM      30.04S VSB 1/4

 IN RI

CITY           SKY/WX    TMP DP  RH WIND       PRES   REMARKS
PROVIDENCE     CLEAR     60  57  89 W6        30.02S
BLOCK ISLAND   PTCLDY    63  57  82 W7        30.02S
WESTERLY       CLEAR     60  58  92 W3        30.04R FOG

 IN MA

CITY           SKY/WX    TMP DP  RH WIND       PRES   REMARKS
BOSTON         CLEAR     61  58  90 SW7       29.99F
WORCESTER      CLEAR     60  55  83 W14       30.02S
WESTFIELD      MOCLDY    55  54  96 CALM      30.03S FOG
PROVINCETOWN   CLEAR     55   1  11 W8        30.00S
NANTUCKET      CLEAR     57  54  89 W7        30.01R
$$

ANZ330-335-338-340-345-350-353-355-050900-
COASTAL MARINE OBSERVATIONS


STATION/POSITION TIME  SKY/WX   TEMP    WIND        PRES    VSBY  WAVE
                                AIR SEA DIR/SP/G                  HT/PER
                 (UTC)          (F)     (DEG/KT/KT) (MB)    (MI)  (FT/S)
NY HARB ENTRANCE 0750            69 69  250/  6/  8 1017.0          3/ 8
4S FIRE IS       0703               70                N/A           3/ 8
20S FIRE ISLAND  0750            69 69  280/  4/  6 1016.8          4/ 8
GREAT SOUTH BAY  0715            71 75  280/  6/  8   N/A
23SW MTP         0750            67 68  300/  6/  8 1016.6          4/ 9
HUDSON CANYON    NOT AVBL
KINGS POINT      0700            68 66  150/  2/  4 1016.5
CENTRAL LI SOUND NOT AVBL
EASTERN LI SOUND 0700            63 63  290/  6/  8   N/A
ROBBINS REEF     0700            70     250/  5/  5 1016.1
$$


>>>>>>>>>>>>>>>>>>>>>>>>>>>> KEY <<<<<<<<<<<<<<<<<<<<<<<<<<<
>                                                          <
>     SKY/WX - SKY CONDITION/PRESENT WEATHER               <
>     TMP    - TEMPERATURE IN FAHRENHEIT                   <
>     DP     - DEWPOINT IN FAHRENHEIT                      <
>     RH     - RELATIVE HUMIDITY IN PERCENT                <
>     WIND   - DIRECTION AND SPEED IN MPH                  <
>     PRES   - MEAN SEA LEVEL PRESSURE IN INCHES OF HG     <
>     WCI    - WIND CHILL INDEX                            <
>     VSB    - VISIBILITY IN MILES                         <
>     HX     - HEAT INDEX                                  <
>     TC     - TEMPERATURE IN CELSIUS                      <
>     VRB    - VARIABLE WIND DIRECTION                     <
>                                                          <
>>>>>>>>>>>>>>>>>>>>>>>>>>>> KEY <<<<<<<<<<<<<<<<<<<<<<<<<<<




USA.gov is the U.S. government's official web portal to all federal, state and local government web resources and services.